Vernon, TX

10:56 AM CST on February 19, 2017 (GMT -0600)
Vernon

Weather History for KF05 - March, 2014

Change the Weather History Date:

Friday, March 28, 2014

  Actual Average (KLTS) Record (KLTS)
Temperature  
Mean Temperature 56 °F -  
Max Temperature 63 °F 67 °F 87 °F (1998)
Min Temperature 48 °F 43 °F 30 °F (2009)
Degree Days  
Heating Degree Days 10    
Growing Degree Days 6 (Base 50)    
Moisture  
Dew Point 38 °F    
Average Humidity 51    
Maximum Humidity 69    
Minimum Humidity 36    
Precipitation  
Precipitation 0.00 in - - ()
Sea Level Pressure  
Sea Level Pressure 29.92 in    
Wind  
Wind Speed 11 mph (NNE)    
Max Wind Speed 21 mph    
Max Gust Speed 28 mph    
Visibility 10 miles    
Events      
Averages and records for this station are not official NWS values.
T = Trace of Precipitation, MM = Missing Value Source: NWS Daily Summary

Daily Weather History Graph

Daily Weather History Graph

Search for Another Location

Airport or City:

Trip Planner

Search our weather history database for the weather conditions in past years. The results will help you decide how hot, cold, wet, or windy it might be!

Date:

Astronomy

Mar. 28, 2014 Rise Set
Actual Time 7:29 AM CDT 7:54 PM CDT
Civil Twilight 7:04 AM CDT 8:20 PM CDT
Nautical Twilight 6:35 AM CDT 8:49 PM CDT
Astronomical Twilight 6:05 AM CDT 9:19 PM CDT
Moon 5:55 AM CDT (3/28) 5:57 PM CDT (3/28)
Length of Visible Light 13h 15m
Length of Day
12h 25m
Waning Crescent, 6% of the Moon is Illuminated
Mar 28
Waning Crescent
Mar 30
New
Apr 7
First Quarter
Apr 15
Full
Apr 22
Last Quarter

Hourly Weather History & Observations

Time (CDT) Temp. Dew Point Humidity Pressure Visibility Wind Dir Wind Speed Gust Speed Precip Events Conditions
12:15 AM 59.0 °F 33.1 °F 38% 29.76 in 10.0 mi NE 5.8 mph - N/A   Clear
12:35 AM 58.1 °F 33.4 °F 39% 29.77 in 10.0 mi NE 5.8 mph - N/A   Clear
12:55 AM 58.5 °F 36.0 °F 43% 29.77 in 10.0 mi NE 6.9 mph - N/A   Clear
1:15 AM 56.8 °F 38.5 °F 50% 29.77 in 10.0 mi NNE 4.6 mph - N/A   Clear
1:35 AM 54.1 °F 39.7 °F 58% 29.77 in 10.0 mi NNE 8.1 mph - N/A   Clear
1:55 AM 55.0 °F 40.5 °F 58% 29.78 in 10.0 mi NE 9.2 mph - N/A   Clear
2:15 AM 56.3 °F 41.2 °F 57% 29.78 in 10.0 mi ENE 13.8 mph 18.4 mph N/A   Clear
2:35 AM 57.4 °F 41.0 °F 54% 29.77 in 10.0 mi NE 12.7 mph - N/A   Clear
2:55 AM 57.4 °F 40.3 °F 53% 29.76 in 10.0 mi NE 16.1 mph - N/A   Clear
3:15 AM 57.6 °F 39.6 °F 51% 29.77 in 10.0 mi ENE 12.7 mph - N/A   Clear
3:35 AM 57.2 °F 39.7 °F 52% 29.79 in 10.0 mi East 10.4 mph - N/A   Clear
3:55 AM 56.8 °F 40.1 °F 54% 29.78 in 10.0 mi ENE 10.4 mph - N/A   Clear
4:15 AM 56.3 °F 40.3 °F 55% 29.77 in 10.0 mi ENE 10.4 mph - N/A   Clear
4:35 AM 55.9 °F 40.3 °F 56% 29.77 in 10.0 mi NE 13.8 mph - N/A   Clear
4:55 AM 55.8 °F 40.1 °F 56% 29.78 in 10.0 mi ENE 12.7 mph - N/A   Clear
5:15 AM 55.6 °F 40.3 °F 56% 29.79 in 10.0 mi ENE 9.2 mph - N/A   Clear
5:35 AM 55.2 °F 40.1 °F 57% 29.80 in 10.0 mi NE 9.2 mph - N/A   Clear
5:55 AM 54.7 °F 40.1 °F 58% 29.81 in 10.0 mi NNE 8.1 mph - N/A   Clear
6:15 AM 54.1 °F 39.9 °F 59% 29.81 in 10.0 mi NE 9.2 mph - N/A   Clear
6:35 AM 53.6 °F 40.1 °F 60% 29.83 in 10.0 mi North 9.2 mph - N/A   Clear
7:15 AM 53.6 °F 39.9 °F 60% 29.84 in 10.0 mi North 11.5 mph - N/A   Clear
7:35 AM 52.0 °F 40.3 °F 64% 29.84 in 10.0 mi North 11.5 mph - N/A   Clear
7:55 AM 50.5 °F 40.3 °F 68% 29.84 in 10.0 mi NNE 10.4 mph - N/A   Clear
8:15 AM 50.2 °F 40.3 °F 69% 29.83 in 10.0 mi NNE 13.8 mph - N/A   Clear
8:35 AM 50.9 °F 40.1 °F 67% 29.84 in 10.0 mi NE 12.7 mph - N/A   Clear
8:55 AM 51.1 °F 39.9 °F 66% 29.87 in 10.0 mi North 12.7 mph 18.4 mph N/A   Clear
9:15 AM 50.9 °F 39.4 °F 65% 29.89 in 10.0 mi North 16.1 mph 20.7 mph N/A   Mostly Cloudy
9:35 AM 50.5 °F 38.7 °F 64% 29.90 in 10.0 mi North 12.7 mph 20.7 mph N/A   Overcast
9:55 AM 50.4 °F 38.3 °F 63% 29.91 in 10.0 mi North 13.8 mph - N/A   Overcast
10:15 AM 51.1 °F 38.1 °F 61% 29.90 in 10.0 mi NNE 16.1 mph 21.9 mph N/A   Overcast
10:35 AM 51.8 °F 37.8 °F 59% 29.92 in 10.0 mi NNE 13.8 mph - N/A   Overcast
10:55 AM 52.7 °F 37.8 °F 57% 29.92 in 10.0 mi NNE 15.0 mph 20.7 mph N/A   Overcast
11:15 AM 53.2 °F 37.9 °F 56% 29.93 in 10.0 mi NNE 11.5 mph - N/A   Overcast
11:35 AM 54.1 °F 37.9 °F 54% 29.94 in 10.0 mi NNE 10.4 mph - N/A   Overcast
11:55 AM 55.4 °F 38.3 °F 53% 29.93 in 10.0 mi NE 9.2 mph - N/A   Overcast
12:15 PM 57.6 °F 39.6 °F 51% 29.93 in 10.0 mi NE 11.5 mph - N/A   Scattered Clouds
12:35 PM 58.8 °F 39.9 °F 50% 29.93 in 10.0 mi North 9.2 mph - N/A   Scattered Clouds
12:55 PM 59.9 °F 39.9 °F 48% 29.93 in 10.0 mi North 10.4 mph - N/A   Scattered Clouds
1:15 PM 60.3 °F 40.3 °F 48% 29.95 in 10.0 mi NNW 12.7 mph 16.1 mph N/A   Mostly Cloudy
1:35 PM 60.3 °F 40.1 °F 47% 29.95 in 10.0 mi NNW 15.0 mph 18.4 mph N/A   Overcast
1:55 PM 61.2 °F 39.4 °F 45% 29.95 in 10.0 mi North 16.1 mph - N/A   Overcast
2:15 PM 61.2 °F 39.2 °F 44% 29.95 in 10.0 mi North 18.4 mph 24.2 mph N/A   Overcast
2:35 PM 61.9 °F 39.2 °F 43% 29.95 in 10.0 mi NNE 16.1 mph 26.5 mph N/A   Overcast
2:55 PM 63.3 °F 38.7 °F 40% 29.94 in 10.0 mi North 20.7 mph 27.6 mph N/A   Mostly Cloudy
3:15 PM 63.7 °F 38.1 °F 39% 29.94 in 10.0 mi NNE 19.6 mph 25.3 mph N/A   Scattered Clouds
3:35 PM 63.7 °F 37.9 °F 39% 29.94 in 10.0 mi North 20.7 mph 26.5 mph N/A   Clear
3:55 PM 63.1 °F 37.0 °F 38% 29.95 in 10.0 mi North 18.4 mph 25.3 mph N/A   Clear
4:15 PM 62.2 °F 37.2 °F 39% 29.96 in 10.0 mi North 16.1 mph 25.3 mph N/A   Clear
4:35 PM 62.1 °F 36.9 °F 39% 29.96 in 10.0 mi North 17.3 mph 24.2 mph N/A   Clear
4:55 PM 62.6 °F 36.1 °F 37% 29.96 in 10.0 mi North 13.8 mph 21.9 mph N/A   Clear
5:15 PM 63.0 °F 36.0 °F 37% 29.97 in 10.0 mi North 13.8 mph - N/A   Clear
5:35 PM 62.8 °F 36.0 °F 37% 29.97 in 10.0 mi North 15.0 mph 19.6 mph N/A   Clear
5:55 PM 63.0 °F 36.1 °F 37% 29.98 in 10.0 mi NNE 15.0 mph - N/A   Clear
6:15 PM 63.0 °F 35.6 °F 36% 29.99 in 10.0 mi North 12.7 mph 16.1 mph N/A   Clear
6:35 PM 62.6 °F 36.0 °F 37% 30.00 in 10.0 mi North 13.8 mph 17.3 mph N/A   Clear
6:55 PM 62.1 °F 35.6 °F 37% 30.01 in 10.0 mi NNE 11.5 mph - N/A   Clear
7:15 PM 61.3 °F 35.1 °F 37% 30.02 in 10.0 mi NNE 9.2 mph - N/A   Clear
7:35 PM 60.3 °F 35.1 °F 39% 30.04 in 10.0 mi NE 9.2 mph - N/A   Clear
7:55 PM - - N/A% 30.04 in - NE 6.9 mph - N/A   Unknown
8:15 PM 57.6 °F 36.0 °F 44% 30.05 in 10.0 mi NE 8.1 mph - N/A   Clear
8:35 PM 56.1 °F 36.1 °F 47% 30.06 in 10.0 mi NE 6.9 mph - N/A   Clear
8:55 PM 55.4 °F 35.8 °F 48% 30.07 in 10.0 mi NNE 8.1 mph - N/A   Clear
9:15 PM 54.9 °F 35.4 °F 48% 30.08 in 10.0 mi NNE 8.1 mph - N/A   Clear
9:35 PM 54.3 °F 34.9 °F 48% 30.09 in 10.0 mi NE 11.5 mph - N/A   Clear
9:55 PM 54.0 °F 34.3 °F 47% 30.11 in 10.0 mi NE 11.5 mph - N/A   Clear
10:15 PM 53.8 °F 33.8 °F 47% 30.12 in 10.0 mi NNE 10.4 mph - N/A   Clear
10:35 PM 52.5 °F 34.0 °F 49% 30.13 in 10.0 mi NNE 8.1 mph - N/A   Clear
10:55 PM 50.0 °F 34.5 °F 55% 30.13 in 10.0 mi NNE 9.2 mph - N/A   Clear
11:15 PM 48.9 °F 34.7 °F 58% 30.13 in 10.0 mi NE 10.4 mph - N/A   Clear
11:35 PM 48.6 °F 34.2 °F 58% 30.13 in 10.0 mi NE 10.4 mph - N/A   Clear
11:55 PM 49.1 °F 33.3 °F 54% 30.15 in 10.0 mi NNE 5.8 mph - N/A   Clear